Regional Weather Roundup
Issued by NWS Goodland, KS

Home | Current Version | Previous Version | Text Only | Print | Product List | Glossary Off
Versions: 1 2 3 4 5 6 7 8 9 10 11 12 13 14 15 16 17 18 19 20 21 22 23 24 25 26 27 28 29 30 31 32 33 34 35 36 37 38 39 40 41 42 43 44 45 46 47 48 49 50

000
ASUS43 KGLD 251159
RWRGLD

GOODLAND FORECAST AREA HOURLY WEATHER ROUNDUP
NATIONAL WEATHER SERVICE GOODLAND KS
600 AM MDT SUN JUN 25 2017

...OFFICIAL OBSERVATIONS...

CITY           SKY/WX    TMP DP  RH WIND       PRES   REMARKS
GOODLAND KS    CLOUDY    54  54 100 E6        30.31R
HILL CITY KS   CLOUDY    59  57  93 N9        30.33R
IMPERIAL NEB   CLOUDY    54  42  64 NE8       30.35R
MCCOOK NEB     CLOUDY    54  44  69 E8        30.33F
AKRON CO       CLOUDY    55  51  86 NE12      30.35S
BURLINGTON CO  CLOUDY    53  50  89 SE10      30.31S
LIMON CO       CLOUDY    49  47  93 CALM      30.35S
$$

...UNOFFICIAL OBSERVATIONS...

CITY           SKY/WX    TMP DP  RH WIND       PRES   REMARKS
LENORA KS        N/A     57  32  39 MISG        N/A
NORTON KS      CLOUDY    55  48  76 N5        30.33R
SHARON SPRINGS   N/A     56  48  74 SE9         N/A
TRENTON NEB      N/A     56  32  40 NE7         N/A
KIT CARSON CO    N/A     53  46  78 MISG        N/A
YUMA CO        LGT RAIN  52  50  93 NE6       30.32F
$$




USA.gov is the U.S. government's official web portal to all federal, state and local government web resources and services.